IZA902 UMKK-USII

Flight info

Callsign IZA902
Flight time 3h 10m
Altitude 35000
Route N0460F350 PELUG DCT OTVOV DCT KEDUX DCT PIVAX DCT PIRUX DCT PISIM DCT PIDIN DCT ARANS DCT ATLUM M60 TIPNA N198 TUNOB M61 AGNOG P977 RULEN
Aircraft B738/M-VGDW/C

Departure

Time 2026-04-26 08:27
Airport Khrabrovo Airport (UMKK)

Arrival

Time 2026-04-26 11:38
Airport Izhevsk Airport (USII)
Time Latitude Longitude Altitude Speed Heading
2026-04-26 07:47 54.88415 20.58646 26 ft 0 kts 155°
2026-04-26 08:16 54.88425 20.58638 26 ft 4 kts 148°
2026-04-26 08:16 54.88444 20.58609 28 ft 4 kts 120°
2026-04-26 08:17 54.88453 20.58567 28 ft 4 kts 91°
2026-04-26 08:17 54.88450 20.58528 31 ft 1 kts 65°
2026-04-26 08:17 54.88450 20.58527 31 ft 0 kts 65°
2026-04-26 08:20 54.88454 20.58543 31 ft 3 kts 65°
2026-04-26 08:20 54.88467 20.58592 30 ft 6 kts 65°
2026-04-26 08:21 54.88488 20.58671 28 ft 8 kts 66°
2026-04-26 08:21 54.88510 20.58759 28 ft 8 kts 66°
2026-04-26 08:21 54.88547 20.58817 27 ft 8 kts
2026-04-26 08:21 54.88595 20.58788 27 ft 7 kts 337°
2026-04-26 08:22 54.88642 20.58753 25 ft 7 kts 337°
2026-04-26 08:22 54.88691 20.58715 29 ft 9 kts 335°
2026-04-26 08:22 54.88750 20.58668 24 ft 10 kts 336°
2026-04-26 08:22 54.88823 20.58639 20 ft 12 kts 18°
2026-04-26 08:23 54.88886 20.58781 21 ft 20 kts 67°
2026-04-26 08:23 54.88951 20.59045 23 ft 28 kts 66°
2026-04-26 08:23 54.89029 20.59346 25 ft 27 kts 65°
2026-04-26 08:23 54.89104 20.59628 22 ft 25 kts 65°
2026-04-26 08:24 54.89174 20.59895 20 ft 25 kts 65°
2026-04-26 08:24 54.89251 20.60198 21 ft 29 kts 65°
2026-04-26 08:24 54.89339 20.60532 24 ft 31 kts 66°
2026-04-26 08:24 54.89425 20.60866 20 ft 30 kts 66°
2026-04-26 08:25 54.89506 20.61178 20 ft 28 kts 65°
2026-04-26 08:25 54.89585 20.61478 23 ft 26 kts 65°
2026-04-26 08:25 54.89655 20.61740 24 ft 22 kts 65°
2026-04-26 08:25 54.89705 20.61927 26 ft 14 kts 65°
2026-04-26 08:26 54.89744 20.62077 23 ft 12 kts 82°
2026-04-26 08:26 54.89734 20.62181 23 ft 8 kts 85°
2026-04-26 08:26 54.89765 20.62176 24 ft 7 kts 280°
2026-04-26 08:26 54.89744 20.62080 23 ft 18 kts 245°
2026-04-26 08:27 54.89594 20.61508 21 ft 86 kts 246°
2026-04-26 08:27 54.89262 20.60232 21 ft 143 kts 245°
2026-04-26 08:27 54.88800 20.58507 364 ft 161 kts 251°
2026-04-26 08:27 54.88317 20.56719 1072 ft 162 kts 260°
2026-04-26 08:28 54.87885 20.54951 1840 ft 162 kts 257°
2026-04-26 08:28 54.87409 20.53032 2165 ft 187 kts 257°
2026-04-26 08:28 54.86947 20.50817 2332 ft 200 kts 271°
2026-04-26 08:28 54.87154 20.48456 2588 ft 202 kts 298°
2026-04-26 08:29 54.87975 20.46415 2796 ft 215 kts 322°
2026-04-26 08:29 54.89327 20.45250 3312 ft 225 kts 347°
2026-04-26 08:29 54.90893 20.45401 4080 ft 233 kts 14°
2026-04-26 08:29 54.92270 20.47009 4846 ft 247 kts 39°
2026-04-26 08:30 54.93453 20.49212 5570 ft 251 kts 40°
2026-04-26 08:30 54.94637 20.51475 6299 ft 254 kts 41°
2026-04-26 08:30 54.95826 20.53754 7046 ft 254 kts 38°
2026-04-26 08:30 54.97275 20.55332 7691 ft 243 kts 10°
2026-04-26 08:31 54.98932 20.55521 8406 ft 238 kts 349°
2026-04-26 08:31 55.00485 20.54729 9086 ft 239 kts 333°
2026-04-26 08:31 55.01845 20.53048 9814 ft 242 kts 321°
2026-04-26 08:31 55.03110 20.51081 10350 ft 250 kts 320°
2026-04-26 08:32 55.04450 20.48936 10504 ft 271 kts 319°
2026-04-26 08:32 55.05885 20.46638 10670 ft 290 kts 319°
2026-04-26 08:32 55.07408 20.44209 11012 ft 301 kts 320°
2026-04-26 08:32 55.08970 20.41735 11606 ft 305 kts 320°
2026-04-26 08:33 55.10548 20.39241 12305 ft 306 kts 320°
2026-04-26 08:33 55.12133 20.36739 13006 ft 308 kts 320°
2026-04-26 08:33 55.13751 20.34258 13651 ft 312 kts 325°
2026-04-26 08:33 55.15700 20.32578 14283 ft 312 kts 341°
2026-04-26 08:34 55.17810 20.31807 15135 ft 310 kts 353°
2026-04-26 08:34 55.19955 20.31589 15948 ft 308 kts 354°
2026-04-26 08:34 55.22096 20.31434 16692 ft 308 kts 354°
2026-04-26 08:34 55.24241 20.31279 17437 ft 308 kts 354°
2026-04-26 08:35 55.26378 20.31113 18213 ft 307 kts 354°
2026-04-26 08:35 55.28485 20.30937 18874 ft 307 kts 354°
2026-04-26 08:35 55.30617 20.30750 19475 ft 308 kts 354°
2026-04-26 08:35 55.32760 20.30557 20065 ft 309 kts 353°
2026-04-26 08:36 55.34900 20.30362 20738 ft 305 kts 353°
2026-04-26 08:36 55.37019 20.30166 21303 ft 307 kts 353°
2026-04-26 08:36 55.39168 20.29966 21782 ft 311 kts 353°
2026-04-26 08:36 55.41336 20.29763 22289 ft 313 kts 353°
2026-04-26 08:37 55.43508 20.29562 22940 ft 313 kts 353°
2026-04-26 08:37 55.45657 20.29072 23468 ft 312 kts 346°
2026-04-26 08:37 55.47761 20.28109 23877 ft 313 kts 342°
2026-04-26 08:37 55.49830 20.26826 24226 ft 317 kts 337°
2026-04-26 08:38 55.51813 20.25076 24577 ft 320 kts 334°
2026-04-26 08:38 55.53783 20.23202 24941 ft 323 kts 333°
2026-04-26 08:38 55.55760 20.21294 25310 ft 325 kts 333°
2026-04-26 08:38 55.57755 20.19365 25651 ft 328 kts 333°
2026-04-26 08:39 55.59765 20.17422 25991 ft 330 kts 333°
2026-04-26 08:39 55.61789 20.15469 26313 ft 333 kts 333°
2026-04-26 08:39 55.63827 20.13505 26640 ft 335 kts 333°
2026-04-26 08:39 55.65883 20.11522 26961 ft 338 kts 333°
2026-04-26 08:40 55.67954 20.09525 27290 ft 340 kts 333°
2026-04-26 08:40 55.70038 20.07515 27597 ft 342 kts 333°
2026-04-26 08:40 55.72135 20.05490 27899 ft 345 kts 333°
2026-04-26 08:40 55.74247 20.03448 28175 ft 347 kts 333°
2026-04-26 08:41 55.76378 20.01386 28448 ft 349 kts 333°
2026-04-26 08:41 55.78451 19.99378 28711 ft 352 kts 333°
2026-04-26 08:41 55.80607 19.97287 28986 ft 354 kts 333°
2026-04-26 08:41 55.82773 19.95183 29269 ft 356 kts 333°
2026-04-26 08:42 55.84922 19.93092 29604 ft 356 kts 332°
2026-04-26 08:42 55.87093 19.90977 30030 ft 355 kts 332°
2026-04-26 08:42 55.89253 19.88870 30365 ft 354 kts 332°
2026-04-26 08:42 55.91418 19.86757 30599 ft 356 kts 332°
2026-04-26 08:43 55.93592 19.84632 30831 ft 357 kts 332°
2026-04-26 08:43 55.95770 19.82500 31124 ft 357 kts 332°
2026-04-26 08:43 55.97944 19.80369 31393 ft 357 kts 332°
2026-04-26 08:43 56.00116 19.78238 31629 ft 358 kts 332°
2026-04-26 08:44 56.02302 19.76089 31882 ft 359 kts 332°
2026-04-26 08:44 56.04490 19.73937 32147 ft 359 kts 332°
2026-04-26 08:44 56.06679 19.71780 32398 ft 360 kts 332°
2026-04-26 08:44 56.08879 19.69609 32530 ft 362 kts 332°
2026-04-26 08:45 56.11080 19.67435 32888 ft 360 kts 332°
2026-04-26 08:45 56.13270 19.65270 33187 ft 359 kts 332°
2026-04-26 08:45 56.15463 19.63098 33374 ft 361 kts 332°
2026-04-26 08:45 56.17682 19.60977 33574 ft 362 kts 336°
2026-04-26 08:46 56.20104 19.59704 33827 ft 364 kts 347°
2026-04-26 08:46 56.22620 19.59100 34078 ft 366 kts 351°
2026-04-26 08:46 56.27792 19.59915 34248 ft 384 kts
2026-04-26 08:47 56.30403 19.61039 34364 ft 387 kts
2026-04-26 08:47 56.33020 19.62205 34541 ft 388 kts
2026-04-26 08:47 56.35637 19.63375 34725 ft 388 kts
2026-04-26 08:47 56.38266 19.64541 34850 ft 390 kts
2026-04-26 08:48 56.40913 19.65703 34960 ft 392 kts
2026-04-26 08:48 56.43574 19.66865 35025 ft 394 kts
2026-04-26 08:48 56.48899 19.69186 35030 ft 392 kts
2026-04-26 08:49 56.54163 19.71479 35037 ft 391 kts
2026-04-26 08:49 56.59438 19.73781 35040 ft 389 kts
2026-04-26 08:50 56.64703 19.76083 35053 ft 390 kts
2026-04-26 08:50 56.69983 19.78398 35038 ft 391 kts
2026-04-26 08:51 56.77941 19.81901 35036 ft 394 kts
2026-04-26 08:52 56.83279 19.84261 35031 ft 395 kts
2026-04-26 08:52 56.88638 19.86637 35031 ft 397 kts
2026-04-26 08:53 56.94021 19.89031 35032 ft 399 kts
2026-04-26 08:53 56.99427 19.91442 35031 ft 401 kts
2026-04-26 08:54 57.04797 19.94296 35029 ft 404 kts 12°
2026-04-26 08:54 57.10150 19.97450 35020 ft 404 kts 12°
2026-04-26 08:55 57.15502 20.00607 35023 ft 404 kts 12°
2026-04-26 08:55 57.20816 20.03715 35018 ft 403 kts 12°
2026-04-26 08:56 57.26149 20.06825 35016 ft 402 kts 12°
2026-04-26 08:56 57.31476 20.09935 35019 ft 401 kts 12°
2026-04-26 08:57 57.36788 20.13044 35018 ft 400 kts 12°
2026-04-26 08:57 57.42089 20.16156 35042 ft 399 kts 12°
2026-04-26 08:58 57.47391 20.19278 35023 ft 400 kts 12°
2026-04-26 08:58 57.52694 20.22410 34988 ft 400 kts 12°
2026-04-26 08:59 57.57989 20.25535 34993 ft 399 kts 12°
2026-04-26 08:59 57.63243 20.28667 35001 ft 399 kts 12°
2026-04-26 09:00 57.67671 20.31311 35000 ft 399 kts 12°
2026-04-26 09:00 57.72972 20.34480 35014 ft 400 kts 12°
2026-04-26 09:01 57.78279 20.37662 35001 ft 401 kts 12°
2026-04-26 09:01 57.83592 20.40858 34997 ft 401 kts 12°
2026-04-26 09:02 57.88870 20.44042 34992 ft 401 kts 13°
2026-04-26 09:02 57.94180 20.47256 34992 ft 401 kts 13°
2026-04-26 09:03 57.99501 20.50486 34994 ft 402 kts 13°
2026-04-26 09:03 58.04817 20.53724 34977 ft 402 kts 13°
2026-04-26 09:04 58.10143 20.56977 34973 ft 402 kts 13°
2026-04-26 09:04 58.15470 20.60243 34974 ft 402 kts 13°
2026-04-26 09:05 58.20793 20.63515 34980 ft 402 kts 13°
2026-04-26 09:05 58.26121 20.66800 34989 ft 403 kts 13°
2026-04-26 09:06 58.31456 20.70101 34969 ft 403 kts 13°
2026-04-26 09:06 58.36778 20.73405 34970 ft 402 kts 13°
2026-04-26 09:07 58.42097 20.76717 34963 ft 402 kts 13°
2026-04-26 09:07 58.47412 20.80037 34964 ft 401 kts 13°
2026-04-26 09:08 58.52726 20.83366 34968 ft 402 kts 13°
2026-04-26 09:08 58.58015 20.86690 34962 ft 403 kts 13°
2026-04-26 09:09 58.63341 20.90048 34951 ft 403 kts 13°
2026-04-26 09:09 58.68681 20.93427 34951 ft 404 kts 13°
2026-04-26 09:10 58.74022 20.96817 34945 ft 404 kts 13°
2026-04-26 09:10 58.79294 21.00173 34955 ft 406 kts 14°
2026-04-26 09:11 58.84666 21.03605 34937 ft 407 kts 14°
2026-04-26 09:11 58.90055 21.07060 34948 ft 408 kts 14°
2026-04-26 09:12 58.95454 21.10531 34938 ft 409 kts 14°
2026-04-26 09:12 59.00846 21.14055 34936 ft 412 kts 18°
2026-04-26 09:12 59.03363 21.16827 34938 ft 422 kts 32°
2026-04-26 09:13 59.05562 21.20657 34930 ft 430 kts 41°
2026-04-26 09:13 59.07382 21.25343 34915 ft 442 kts 54°
2026-04-26 09:13 59.08811 21.30667 34940 ft 445 kts 56°
2026-04-26 09:14 59.11535 21.41489 34925 ft 446 kts 57°
2026-04-26 09:14 59.14260 21.52332 34904 ft 446 kts 56°
2026-04-26 09:15 59.16995 21.63079 34943 ft 445 kts 56°
2026-04-26 09:15 59.19757 21.73897 34912 ft 445 kts 57°
2026-04-26 09:16 59.22516 21.84735 34894 ft 446 kts 57°
2026-04-26 09:16 59.25266 21.95599 34881 ft 446 kts 57°
2026-04-26 09:17 59.27952 22.06268 34876 ft 446 kts 58°
2026-04-26 09:17 59.30688 22.17190 34868 ft 446 kts 58°
2026-04-26 09:18 59.33410 22.28110 34863 ft 446 kts 58°
2026-04-26 09:18 59.36125 22.39054 34863 ft 447 kts 58°
2026-04-26 09:19 59.38830 22.50015 34875 ft 447 kts 58°
2026-04-26 09:19 59.41533 22.61020 34847 ft 448 kts 59°
2026-04-26 09:20 59.44214 22.71989 34842 ft 449 kts 59°
2026-04-26 09:20 59.46910 22.83077 34832 ft 450 kts 59°
2026-04-26 09:21 59.49599 22.94198 34817 ft 450 kts 59°
2026-04-26 09:21 59.52234 23.05141 34816 ft 451 kts 59°
2026-04-26 09:22 59.54907 23.16339 34804 ft 452 kts 61°
2026-04-26 09:22 59.56999 23.28121 34787 ft 457 kts 67°
2026-04-26 09:23 59.58833 23.40152 34789 ft 458 kts 68°
2026-04-26 09:23 59.60687 23.52183 34780 ft 458 kts 68°
2026-04-26 09:24 59.62572 23.64197 34762 ft 458 kts 68°
2026-04-26 09:24 59.64464 23.76246 34770 ft 459 kts 68°
2026-04-26 09:25 59.66344 23.88297 34760 ft 459 kts 68°
2026-04-26 09:25 59.68191 24.00239 34752 ft 459 kts 68°
2026-04-26 09:26 59.70036 24.12250 34757 ft 459 kts 68°
2026-04-26 09:26 59.71869 24.24269 34746 ft 459 kts 69°
2026-04-26 09:27 59.73706 24.36391 34731 ft 459 kts 69°
2026-04-26 09:27 59.75513 24.48540 34725 ft 460 kts 70°
2026-04-26 09:28 59.77103 24.60841 34724 ft 461 kts 72°
2026-04-26 09:28 59.78627 24.73204 34709 ft 461 kts 72°
2026-04-26 09:29 59.80160 24.85556 34708 ft 460 kts 72°
2026-04-26 09:29 59.81697 24.97897 34696 ft 460 kts 72°
2026-04-26 09:30 59.83204 25.10042 34708 ft 461 kts 71°
2026-04-26 09:30 59.84726 25.22410 34712 ft 461 kts 70°
2026-04-26 09:31 59.86233 25.34809 34687 ft 461 kts 72°
2026-04-26 09:31 59.87733 25.47216 34684 ft 461 kts 70°
2026-04-26 09:32 59.89213 25.59543 34674 ft 461 kts 72°
2026-04-26 09:32 59.90683 25.71966 34657 ft 461 kts 72°
2026-04-26 09:33 59.92145 25.84418 34658 ft 461 kts 70°
2026-04-26 09:33 59.93585 25.96896 34654 ft 464 kts 75°
2026-04-26 09:33 59.93900 26.03055 34601 ft 469 kts 88°
2026-04-26 09:34 59.93726 26.09569 34616 ft 474 kts 94°
2026-04-26 09:34 59.92405 26.22506 34629 ft 477 kts 101°
2026-04-26 09:35 59.90969 26.35434 34630 ft 478 kts 99°
2026-04-26 09:35 59.89576 26.48377 34629 ft 478 kts 97°
2026-04-26 09:36 59.88197 26.61337 34602 ft 479 kts 97°
2026-04-26 09:36 59.86825 26.74193 34616 ft 478 kts 97°
2026-04-26 09:37 59.85427 26.87134 34594 ft 478 kts 97°
2026-04-26 09:37 59.84017 27.00050 34583 ft 477 kts 98°
2026-04-26 09:38 59.82625 27.12666 34581 ft 477 kts 99°
2026-04-26 09:38 59.81193 27.25529 34585 ft 476 kts 97°
2026-04-26 09:39 59.79753 27.38356 34558 ft 475 kts 99°
2026-04-26 09:39 59.78307 27.51148 34553 ft 475 kts 99°
2026-04-26 09:40 59.76852 27.63867 34535 ft 475 kts 98°
2026-04-26 09:40 59.76194 27.76787 34572 ft 469 kts 87°
2026-04-26 09:41 59.76019 27.89716 34517 ft 469 kts 88°
2026-04-26 09:41 59.75832 28.02389 34507 ft 462 kts 89°
2026-04-26 09:42 59.75587 28.15015 34491 ft 456 kts 89°
2026-04-26 09:42 59.75320 28.27484 34484 ft 449 kts 88°
2026-04-26 09:43 59.75044 28.39821 34484 ft 447 kts 90°
2026-04-26 09:43 59.74762 28.52224 34481 ft 454 kts 90°
2026-04-26 09:44 59.74460 28.64786 34471 ft 457 kts 89°
2026-04-26 09:44 59.74141 28.77411 34454 ft 459 kts 91°
2026-04-26 09:45 59.73814 28.89958 34438 ft 451 kts 89°
2026-04-26 09:45 59.73488 29.02121 34429 ft 447 kts 91°
2026-04-26 09:46 59.73163 29.14490 34439 ft 452 kts 91°
2026-04-26 09:46 59.72831 29.27014 34405 ft 457 kts 92°
2026-04-26 09:47 59.72485 29.39531 34399 ft 457 kts 91°
2026-04-26 09:47 59.72126 29.52004 34392 ft 450 kts 92°
2026-04-26 09:48 59.71842 29.64343 34381 ft 447 kts 91°
2026-04-26 09:48 59.71621 29.76718 34391 ft 453 kts 90°
2026-04-26 09:49 59.71421 29.87207 34357 ft 456 kts 91°
2026-04-26 09:49 59.71156 29.99793 34356 ft 459 kts 92°
2026-04-26 09:50 59.70879 30.12070 34341 ft 451 kts 92°
2026-04-26 09:50 59.70590 30.24434 34337 ft 449 kts 92°
2026-04-26 09:51 59.70289 30.36849 34339 ft 454 kts 92°
2026-04-26 09:51 59.69972 30.49422 34326 ft 460 kts 92°
2026-04-26 09:52 59.69641 30.62051 34313 ft 456 kts 92°
2026-04-26 09:52 59.69131 30.80700 34317 ft 451 kts 93°
2026-04-26 09:53 59.68777 30.93108 34318 ft 451 kts 94°
2026-04-26 09:53 59.68417 31.05373 34312 ft 454 kts 94°
2026-04-26 09:54 59.68067 31.17896 34309 ft 457 kts 91°
2026-04-26 09:54 59.68149 31.30508 34309 ft 459 kts 89°
2026-04-26 09:55 59.68359 31.43107 34296 ft 455 kts 89°
2026-04-26 09:55 59.68509 31.55557 34300 ft 450 kts 89°
2026-04-26 09:56 59.68612 31.67900 34300 ft 448 kts 90°
2026-04-26 09:56 59.68699 31.80307 34315 ft 454 kts 90°
2026-04-26 09:57 59.68782 31.92894 34302 ft 460 kts 90°
2026-04-26 09:57 59.68974 32.05372 34299 ft 460 kts 88°
2026-04-26 09:58 59.69346 32.17823 34296 ft 453 kts 87°
2026-04-26 09:58 59.69717 32.30314 34309 ft 450 kts 88°
2026-04-26 09:59 59.70046 32.42672 34311 ft 455 kts 87°
2026-04-26 09:59 59.70357 32.55248 34312 ft 459 kts 88°
2026-04-26 10:00 59.70652 32.67918 34318 ft 461 kts 89°
2026-04-26 10:00 59.70937 32.80588 34309 ft 457 kts 89°
2026-04-26 10:01 59.71208 32.93079 34322 ft 451 kts 89°
2026-04-26 10:01 59.71461 33.05297 34318 ft 449 kts 89°
2026-04-26 10:02 59.71704 33.17650 34321 ft 449 kts 89°
2026-04-26 10:02 59.71935 33.30003 34319 ft 451 kts 89°
2026-04-26 10:03 59.72157 33.42502 34337 ft 458 kts 90°
2026-04-26 10:03 59.72372 33.55172 34339 ft 461 kts 90°
2026-04-26 10:04 59.72574 33.67815 34319 ft 454 kts 90°
2026-04-26 10:04 59.72759 33.80243 34324 ft 450 kts 90°
2026-04-26 10:05 59.72931 33.92534 34332 ft 448 kts 90°
2026-04-26 10:05 59.73090 34.04708 34331 ft 448 kts 90°
2026-04-26 10:06 59.73240 34.17066 34337 ft 449 kts 90°
2026-04-26 10:06 59.73378 34.29456 34345 ft 450 kts 90°
2026-04-26 10:07 59.73506 34.41896 34342 ft 452 kts 90°
2026-04-26 10:07 59.73623 34.54375 34341 ft 453 kts 90°
2026-04-26 10:08 59.73726 34.66796 34338 ft 455 kts 91°
2026-04-26 10:08 59.73819 34.79338 34340 ft 455 kts 91°
2026-04-26 10:09 59.73901 34.91889 34336 ft 456 kts 91°
2026-04-26 10:09 59.73970 35.04263 34344 ft 456 kts 91°
2026-04-26 10:10 59.74027 35.16824 34345 ft 456 kts 91°
2026-04-26 10:10 59.74075 35.29393 34346 ft 456 kts 91°
2026-04-26 10:11 59.74148 35.41952 34344 ft 456 kts 90°
2026-04-26 10:11 59.74505 35.54497 34346 ft 456 kts 88°
2026-04-26 10:12 59.74927 35.67035 34330 ft 455 kts 88°
2026-04-26 10:12 59.75309 35.79547 34341 ft 454 kts 89°
2026-04-26 10:13 59.75658 35.92051 34344 ft 454 kts 89°
2026-04-26 10:13 59.75985 36.04376 34355 ft 454 kts 89°
2026-04-26 10:14 59.76305 36.16880 34345 ft 454 kts 89°
2026-04-26 10:14 59.76614 36.29382 34340 ft 454 kts 89°
2026-04-26 10:15 59.76912 36.41901 34341 ft 454 kts 90°
2026-04-26 10:15 59.77196 36.54345 34328 ft 454 kts 90°
2026-04-26 10:16 59.77470 36.66871 34340 ft 454 kts 90°
2026-04-26 10:16 59.77734 36.79403 34340 ft 455 kts 90°
2026-04-26 10:17 59.77987 36.91939 34344 ft 455 kts 90°
2026-04-26 10:17 59.78227 37.04292 34344 ft 455 kts 90°
2026-04-26 10:18 59.78463 37.16864 34347 ft 456 kts 90°
2026-04-26 10:18 59.78684 37.29444 34352 ft 456 kts 91°
2026-04-26 10:19 59.78885 37.42021 34340 ft 456 kts 91°
2026-04-26 10:19 59.79075 37.54600 34347 ft 456 kts 91°
2026-04-26 10:20 59.79225 37.65067 34362 ft 456 kts 91°
2026-04-26 10:20 59.79423 37.79797 34360 ft 457 kts 91°
2026-04-26 10:21 59.79579 37.92412 34364 ft 457 kts 91°
2026-04-26 10:21 59.79723 38.04833 34370 ft 457 kts 91°
2026-04-26 10:22 59.79855 38.17379 34372 ft 457 kts 91°
2026-04-26 10:22 59.79973 38.30100 34370 ft 457 kts 92°
2026-04-26 10:23 59.80079 38.42730 34383 ft 458 kts 92°
2026-04-26 10:23 59.80173 38.55296 34391 ft 458 kts 92°
2026-04-26 10:24 59.80257 38.67981 34389 ft 459 kts 92°
2026-04-26 10:24 59.80327 38.80801 34396 ft 469 kts 92°
2026-04-26 10:25 59.80387 38.93883 34415 ft 478 kts 92°
2026-04-26 10:25 59.80436 39.06858 34378 ft 478 kts 93°
2026-04-26 10:26 59.80474 39.20073 34401 ft 479 kts 93°
2026-04-26 10:26 59.80495 39.33310 34424 ft 479 kts 94°
2026-04-26 10:27 59.79547 39.46270 34432 ft 472 kts 109°
2026-04-26 10:27 59.77800 39.58816 34433 ft 472 kts 109°
2026-04-26 10:28 59.76071 39.71300 34427 ft 472 kts 109°
2026-04-26 10:28 59.74372 39.83872 34425 ft 472 kts 109°
2026-04-26 10:29 59.72675 39.96432 34436 ft 471 kts 109°
2026-04-26 10:29 59.70998 40.08735 34443 ft 471 kts 109°
2026-04-26 10:30 59.69278 40.21239 34444 ft 470 kts 109°
2026-04-26 10:30 59.67554 40.33734 34450 ft 470 kts 109°
2026-04-26 10:31 59.65828 40.46189 34450 ft 470 kts 109°
2026-04-26 10:31 59.64091 40.58624 34445 ft 469 kts 110°
2026-04-26 10:32 59.62345 40.71024 34454 ft 468 kts 110°
2026-04-26 10:32 59.60591 40.83387 34456 ft 467 kts 110°
2026-04-26 10:33 59.58827 40.95720 34460 ft 467 kts 110°
2026-04-26 10:33 59.57081 41.07836 34460 ft 466 kts 110°
2026-04-26 10:34 59.55308 41.20052 34450 ft 466 kts 110°
2026-04-26 10:34 59.53513 41.32322 34458 ft 465 kts 110°
2026-04-26 10:35 59.51709 41.44566 34474 ft 465 kts 110°
2026-04-26 10:35 59.49892 41.56804 34468 ft 466 kts 111°
2026-04-26 10:36 59.48373 41.66974 34475 ft 466 kts 111°
2026-04-26 10:36 59.46529 41.79227 34480 ft 467 kts 111°
2026-04-26 10:37 59.44672 41.91484 34486 ft 468 kts 111°
2026-04-26 10:37 59.42838 42.03505 34493 ft 468 kts 111°
2026-04-26 10:38 59.40956 42.15755 34486 ft 469 kts 111°
2026-04-26 10:38 59.39060 42.28019 34484 ft 470 kts 111°
2026-04-26 10:39 59.37677 42.40592 34504 ft 475 kts 101°
2026-04-26 10:39 59.36961 42.53505 34482 ft 477 kts 100°
2026-04-26 10:40 59.36256 42.66327 34497 ft 476 kts 100°
2026-04-26 10:40 59.35482 42.79219 34500 ft 476 kts 101°
2026-04-26 10:41 59.34668 42.92104 34516 ft 476 kts 101°
2026-04-26 10:41 59.33852 43.04773 34518 ft 476 kts 101°
2026-04-26 10:42 59.33011 43.17651 34527 ft 477 kts 101°
2026-04-26 10:42 59.32158 43.30534 34512 ft 477 kts 101°
2026-04-26 10:43 59.31292 43.43416 34535 ft 478 kts 101°
2026-04-26 10:43 59.30411 43.56330 34543 ft 479 kts 101°
2026-04-26 10:44 59.29516 43.69248 34543 ft 480 kts 101°
2026-04-26 10:44 59.28608 43.82184 34563 ft 481 kts 102°
2026-04-26 10:45 59.27684 43.95146 34562 ft 481 kts 102°
2026-04-26 10:45 59.26764 44.07895 34546 ft 482 kts 102°
2026-04-26 10:46 59.25833 44.20795 34584 ft 482 kts 101°
2026-04-26 10:46 59.24970 44.33809 34587 ft 483 kts 101°
2026-04-26 10:47 59.24111 44.46833 34597 ft 484 kts 101°
2026-04-26 10:47 59.23228 44.59871 34598 ft 484 kts 101°
2026-04-26 10:48 59.22324 44.72904 34614 ft 485 kts 101°
2026-04-26 10:48 59.21405 44.85945 34587 ft 485 kts 101°
2026-04-26 10:49 59.20474 44.98982 34613 ft 485 kts 101°
2026-04-26 10:49 59.19546 45.11807 34631 ft 485 kts 101°
2026-04-26 10:50 59.18752 45.22654 34627 ft 486 kts 101°
2026-04-26 10:50 59.17378 45.37796 34640 ft 485 kts 105°
2026-04-26 10:51 59.15176 45.56956 34651 ft 485 kts 106°
2026-04-26 10:52 59.13697 45.69874 34645 ft 486 kts 105°
2026-04-26 10:52 59.12250 45.82642 34652 ft 486 kts 105°
2026-04-26 10:53 59.10788 45.95490 34669 ft 487 kts 105°
2026-04-26 10:53 59.09333 46.08147 34667 ft 487 kts 105°
2026-04-26 10:54 59.07088 46.27432 34679 ft 487 kts 106°
2026-04-26 10:54 59.05577 46.40267 34669 ft 487 kts 106°
2026-04-26 10:55 59.04053 46.53081 34692 ft 487 kts 105°
2026-04-26 10:55 59.02523 46.65829 34694 ft 488 kts 106°
2026-04-26 10:56 59.00962 46.78724 34698 ft 488 kts 106°
2026-04-26 10:56 58.99398 46.91533 34706 ft 488 kts 106°
2026-04-26 10:57 58.97842 47.04156 34694 ft 489 kts 106°
2026-04-26 10:57 58.96261 47.16875 34705 ft 489 kts 106°
2026-04-26 10:58 58.94659 47.29669 34714 ft 489 kts 106°
2026-04-26 10:58 58.92883 47.42362 34720 ft 486 kts 115°
2026-04-26 10:59 58.89610 47.53613 34720 ft 476 kts 134°
2026-04-26 10:59 58.85311 47.63271 34727 ft 474 kts 136°
2026-04-26 11:00 58.80976 47.72865 34733 ft 475 kts 136°
2026-04-26 11:00 58.76661 47.82530 34748 ft 476 kts 135°
2026-04-26 11:01 58.72347 47.92225 34749 ft 477 kts 135°
2026-04-26 11:01 58.68083 48.01773 34748 ft 478 kts 135°
2026-04-26 11:02 58.63739 48.11451 34734 ft 478 kts 135°
2026-04-26 11:02 58.59392 48.21099 34752 ft 478 kts 135°
2026-04-26 11:03 58.55190 48.30922 34762 ft 481 kts 131°
2026-04-26 11:03 58.51169 48.41193 34759 ft 482 kts 131°
2026-04-26 11:04 58.47115 48.51395 34766 ft 482 kts 132°
2026-04-26 11:04 58.43035 48.61536 34766 ft 482 kts 132°
2026-04-26 11:05 58.38961 48.71685 34771 ft 481 kts 132°
2026-04-26 11:05 58.34888 48.81805 34769 ft 481 kts 132°
2026-04-26 11:06 58.31499 48.90188 34768 ft 481 kts 132°
2026-04-26 11:06 58.26789 49.01783 34705 ft 480 kts 132°
2026-04-26 11:07 58.22707 49.11789 34765 ft 477 kts 132°
2026-04-26 11:07 58.18635 49.21725 34779 ft 477 kts 133°
2026-04-26 11:08 58.14591 49.31555 34778 ft 476 kts 133°
2026-04-26 11:08 58.10517 49.41413 34789 ft 475 kts 133°
2026-04-26 11:09 58.06436 49.51249 34773 ft 475 kts 133°
2026-04-26 11:09 58.02356 49.61042 34788 ft 473 kts 133°
2026-04-26 11:10 58.00354 49.65843 34765 ft 458 kts 133°
2026-04-26 11:10 57.98418 49.70481 34773 ft 444 kts 133°
2026-04-26 11:10 57.94608 49.79544 34805 ft 446 kts 133°
2026-04-26 11:11 57.90666 49.88871 34364 ft 471 kts 133°
2026-04-26 11:11 57.88600 49.93756 33956 ft 479 kts 133°
2026-04-26 11:11 57.86558 49.98666 33417 ft 478 kts 129°
2026-04-26 11:12 57.84861 50.03767 32914 ft 479 kts 121°
2026-04-26 11:12 57.83528 50.09533 32249 ft 483 kts 112°
2026-04-26 11:12 57.82394 50.15460 31817 ft 480 kts 112°
2026-04-26 11:12 57.81298 50.21270 31359 ft 477 kts 112°
2026-04-26 11:13 57.80191 50.27099 30920 ft 473 kts 112°
2026-04-26 11:13 57.79077 50.32885 30488 ft 470 kts 112°
2026-04-26 11:13 57.77956 50.38627 30071 ft 467 kts 113°
2026-04-26 11:13 57.76831 50.44326 29610 ft 464 kts 113°
2026-04-26 11:14 57.75708 50.49971 29099 ft 461 kts 112°
2026-04-26 11:14 57.74591 50.55559 28684 ft 456 kts 113°
2026-04-26 11:14 57.73483 50.61089 28249 ft 452 kts 113°
2026-04-26 11:14 57.72754 50.64717 27975 ft 449 kts 113°
2026-04-26 11:15 57.71289 50.71991 27418 ft 444 kts 112°
2026-04-26 11:15 57.70202 50.77372 26990 ft 441 kts 112°
2026-04-26 11:15 57.69119 50.82717 26562 ft 438 kts 112°
2026-04-26 11:15 57.68042 50.88026 26148 ft 435 kts 112°
2026-04-26 11:16 57.66970 50.93292 25737 ft 433 kts 112°
2026-04-26 11:16 57.65902 50.98527 25322 ft 430 kts 112°
2026-04-26 11:16 57.64875 51.03544 24924 ft 428 kts 112°
2026-04-26 11:16 57.63815 51.08712 24518 ft 425 kts 112°
2026-04-26 11:17 57.62760 51.13844 24112 ft 423 kts 112°
2026-04-26 11:17 57.61706 51.18957 23710 ft 421 kts 112°
2026-04-26 11:17 57.60657 51.24035 23297 ft 418 kts 112°
2026-04-26 11:17 57.59625 51.29017 22833 ft 416 kts 112°
2026-04-26 11:18 57.58571 51.34092 22383 ft 413 kts 113°
2026-04-26 11:18 57.57552 51.38986 22000 ft 409 kts 113°
2026-04-26 11:18 57.56527 51.43901 21589 ft 406 kts 113°
2026-04-26 11:18 57.55506 51.48783 21186 ft 403 kts 113°
2026-04-26 11:19 57.54492 51.53618 20786 ft 399 kts 113°
2026-04-26 11:19 57.53481 51.58431 20404 ft 396 kts 113°
2026-04-26 11:19 57.52479 51.63186 20011 ft 393 kts 113°
2026-04-26 11:19 57.51482 51.67906 19628 ft 391 kts 113°
2026-04-26 11:20 57.50490 51.72594 19244 ft 388 kts 113°
2026-04-26 11:20 57.49836 51.75679 18981 ft 387 kts 113°
2026-04-26 11:20 57.48519 51.81873 18479 ft 383 kts 113°
2026-04-26 11:20 57.47539 51.86472 18101 ft 381 kts 114°
2026-04-26 11:21 57.46564 51.91038 17668 ft 379 kts 113°
2026-04-26 11:21 57.45595 51.95565 17278 ft 376 kts 113°
2026-04-26 11:21 57.44635 52.00042 16885 ft 373 kts 113°
2026-04-26 11:21 57.43707 52.04364 16535 ft 369 kts 113°
2026-04-26 11:22 57.42758 52.08774 16153 ft 366 kts 113°
2026-04-26 11:22 57.41815 52.13144 15777 ft 363 kts 113°
2026-04-26 11:22 57.40877 52.17478 15420 ft 361 kts 113°
2026-04-26 11:22 57.39924 52.21746 15131 ft 355 kts 114°
2026-04-26 11:23 57.39280 52.24518 14959 ft 352 kts 115°
2026-04-26 11:23 57.38307 52.28641 14702 ft 346 kts 115°
2026-04-26 11:23 57.37345 52.32695 14437 ft 341 kts 115°
2026-04-26 11:23 57.36392 52.36709 14133 ft 339 kts 115°
2026-04-26 11:24 57.35446 52.40699 13785 ft 338 kts 115°
2026-04-26 11:24 57.34501 52.44683 13411 ft 337 kts 115°
2026-04-26 11:24 57.33560 52.48650 13028 ft 336 kts 115°
2026-04-26 11:24 57.32624 52.52598 12658 ft 334 kts 115°
2026-04-26 11:25 57.31689 52.56533 12303 ft 333 kts 115°
2026-04-26 11:25 57.30759 52.60442 11947 ft 331 kts 115°
2026-04-26 11:25 57.29842 52.64289 11598 ft 330 kts 115°
2026-04-26 11:25 57.28905 52.68212 11244 ft 329 kts 115°
2026-04-26 11:26 57.27994 52.72023 10892 ft 327 kts 115°
2026-04-26 11:26 57.27074 52.75865 10553 ft 326 kts 115°
2026-04-26 11:26 57.26155 52.79693 10247 ft 324 kts 115°
2026-04-26 11:26 57.25255 52.83442 10116 ft 316 kts 115°
2026-04-26 11:27 57.24374 52.87102 9969 ft 308 kts 115°
2026-04-26 11:27 57.23512 52.90676 9840 ft 301 kts 115°
2026-04-26 11:27 57.22669 52.94168 9527 ft 300 kts 115°
2026-04-26 11:27 57.21819 52.97680 9220 ft 299 kts 116°
2026-04-26 11:28 57.20997 53.01070 8916 ft 298 kts 116°
2026-04-26 11:28 57.20149 53.04563 8623 ft 297 kts 116°
2026-04-26 11:28 57.19304 53.08038 8339 ft 296 kts 116°
2026-04-26 11:28 57.18462 53.11498 8032 ft 295 kts 116°
2026-04-26 11:29 57.17622 53.14942 7739 ft 294 kts 116°
2026-04-26 11:29 57.16784 53.18380 7458 ft 293 kts 116°
2026-04-26 11:29 57.15949 53.21794 7186 ft 292 kts 116°
2026-04-26 11:29 57.15117 53.25189 6903 ft 290 kts 116°
2026-04-26 11:30 57.14288 53.28565 6623 ft 288 kts 116°
2026-04-26 11:30 57.13741 53.30789 6428 ft 287 kts 116°
2026-04-26 11:30 57.12640 53.35257 6048 ft 285 kts 116°
2026-04-26 11:30 57.11822 53.38576 5747 ft 284 kts 116°
2026-04-26 11:31 57.11008 53.41870 5467 ft 282 kts 117°
2026-04-26 11:31 57.10198 53.45140 5179 ft 280 kts 116°
2026-04-26 11:31 57.09388 53.48383 4891 ft 278 kts 118°
2026-04-26 11:31 57.08258 53.51182 4664 ft 269 kts 139°
2026-04-26 11:32 57.06923 53.53492 4554 ft 261 kts 139°
2026-04-26 11:32 57.05620 53.55813 4270 ft 260 kts 139°
2026-04-26 11:32 57.04334 53.58137 4011 ft 258 kts 138°
2026-04-26 11:32 57.03036 53.60302 3938 ft 244 kts 150°
2026-04-26 11:33 57.01495 53.61036 3805 ft 223 kts 189°
2026-04-26 11:33 57.00094 53.60249 3733 ft 206 kts 202°
2026-04-26 11:33 56.98824 53.59281 3623 ft 189 kts 205°
2026-04-26 11:33 56.97686 53.58328 3480 ft 173 kts 206°
2026-04-26 11:34 56.96641 53.57439 3279 ft 159 kts 207°
2026-04-26 11:34 56.95684 53.56624 3087 ft 144 kts 207°
2026-04-26 11:34 56.94815 53.55882 2888 ft 137 kts 207°
2026-04-26 11:34 56.93961 53.55155 2688 ft 133 kts 207°
2026-04-26 11:35 56.93139 53.54455 2496 ft 128 kts 207°
2026-04-26 11:35 56.92324 53.53760 2312 ft 130 kts 207°
2026-04-26 11:35 56.91511 53.53068 2134 ft 127 kts 207°
2026-04-26 11:35 56.90707 53.52384 1954 ft 129 kts 206°
2026-04-26 11:36 56.89884 53.51683 1783 ft 130 kts 207°
2026-04-26 11:36 56.89061 53.50983 1599 ft 131 kts 207°
2026-04-26 11:36 56.88235 53.50278 1407 ft 130 kts 208°
2026-04-26 11:36 56.87420 53.49578 1192 ft 129 kts 206°
2026-04-26 11:37 56.86604 53.48889 991 ft 133 kts 206°
2026-04-26 11:37 56.85775 53.48197 829 ft 128 kts 208°
2026-04-26 11:37 56.84970 53.47503 679 ft 128 kts 208°
2026-04-26 11:37 56.84174 53.46817 539 ft 121 kts 207°
2026-04-26 11:38 56.83506 53.46237 530 ft 87 kts 205°
2026-04-26 11:38 56.83095 53.45897 533 ft 41 kts 205°
2026-04-26 11:38 56.82959 53.45780 534 ft 11 kts 205°
2026-04-26 11:38 56.82910 53.45700 535 ft 10 kts 268°
2026-04-26 11:39 56.82929 53.45607 533 ft 7 kts 297°
2026-04-26 11:39 56.82950 53.45528 536 ft 7 kts 295°
2026-04-26 11:39 56.82970 53.45445 536 ft 7 kts 294°
2026-04-26 11:39 56.82991 53.45362 536 ft 7 kts 294°
2026-04-26 11:40 56.83032 53.45321 536 ft 7 kts 337°
2026-04-26 11:40 56.83062 53.45256 536 ft 7 kts 300°
2026-04-26 11:40 56.83074 53.45177 536 ft 7 kts 258°
2026-04-26 11:40 56.83044 53.45131 536 ft 3 kts 207°
2026-04-26 11:41 56.83039 53.45126 536 ft 0 kts 207°